Temperature
11 11 12 12 12 12 12 12 12 12 12 12 12 12 12 12 11 11 11 11 11 11 11 11 11 11 11 11 11 11 11 11 11 10 10 10 10 10 10 11 10 10 10
11 11 11 11 12 12 12 12 12 12 12 11 11 11 11 11 11 11 11 11 11 11 11 11 10 10 10 10 10 10 10 10 10 10 10 10 10 10 10 10 10 10 10
10 11 11 11 11 11 11 11 11 11 11 11 11 11 11 11 10 10 10 10 10 10 10 10 10 10 10 10 10 10 10 10 10 10 9 9 9 9 9 10 10 10 10
10 10 10 10 10 10 11 11 11 11 11 11 11 10 10 10 10 10 10 10 10 10 10 10 10 10 10 9 9 9 9 9 9 9 9 9 9 9 9 9 9 9 9
9 9 9 9 9 10 10 10 10 10 10 10 10 10 10 9 9 9 10 10 10 10 10 9 9 9 9 9 9 8 8 8 8 8 8 8 8 8 8 8 8 9 9
8 8 9 9 9 9 9 9 9 9 10 9 9 9 9 9 9 9 9 9 9 9 9 9 9 9 9 9 8 8 8 8 8 8 8 8 8 8 8 8 8 8 8
8 8 8 8 8 8 9 9 9 9 9 9 9 9 8 8 8 9 9 9 9 9 9 9 9 8 8 8 8 8 8 7 7 7 7 7 7 7 7 7 7 7 7
7 7 7 7 8 8 8 8 8 8 8 8 8 8 8 8 8 8 8 8 8 8 8 8 8 8 8 8 8 8 7 7 7 7 6 6 6 6 6 6 7 7 7
6 7 7 7 7 7 7 7 8 8 8 8 8 8 7 7 7 7 8 8 7 7 8 8 8 8 7 7 7 7 7 7 6 6 6 6 6 6 6 6 6 6 6
6 6 6 6 6 7 7 7 7 7 7 7 7 7 7 7 7 6 7 7 7 7 7 7 7 7 7 7 7 7 6 6 6 6 5 5 5 5 5 5 6 6 6
5 5 6 6 6 6 6 6 6 6 6 6 6 6 6 6 6 6 6 6 6 6 6 6 6 6 6 6 6 6 6 6 5 5 5 5 5 5 5 5 5 5 5
5 5 5 5 5 5 5 6 6 6 6 6 6 6 6 6 5 5 5 5 5 6 6 6 6 6 6 6 5 5 5 5 5 5 5 5 5 5 5 5 4 4 4
4 4 4 4 5 5 5 5 5 5 5 5 5 5 5 5 5 5 5 4 4 5 5 5 5 5 5 5 5 5 5 5 4 4 4 4 4 4 4 4 4 4 4
4 4 4 4 4 4 4 4 4 4 4 4 4 4 4 4 4 4 4 4 4 4 4 4 4 4 4 4 4 4 4 4 4 4 4 4 4 4 4 4 4 4 4
3 3 3 3 3 3 3 3 3 4 4 4 4 4 4 4 4 4 4 3 3 3 3 3 4 4 3 4 4 4 4 4 4 3 3 3 3 3 3 4 3 3 3
2 3 3 3 3 3 3 3 3 3 3 3 3 3 3 3 3 3 3 3 3 3 2 3 3 3 3 3 3 3 3 3 3 3 3 3 3 3 3 3 3 3 2
2 2 2 2 2 2 2 2 2 2 2 2 2 3 3 3 3 3 2 2 2 2 2 2 3 3 2 2 2 2 2 2 2 2 2 2 2 2 2 2 2 2 2
1 2 2 2 2 2 2 2 2 2 2 2 2 2 2 2 2 2 2 2 2 2 2 2 2 2 2 2 2 2 2 2 2 2 2 2 2 2 2 2 2 1 1
1 1 1 1 1 1 1 1 1 1 1 1 1 1 1 1 1 1 1 1 1 1 1 1 1 2 1 1 1 1 1 1 1 1 1 1 1 1 1 1 1 1 1
0 0 0 0 0 0 0 1 1 1 1 1 1 0 0 1 1 1 1 1 1 1 1 1 1 1 1 1 1 1 1 1 1 1 0 0 1 1 1 1 0 0 0
-0 -0 -0 -0 -0 -0 -0 -0 -0 -0 -0 -0 -0 -0 -0 0 0 0 0 0 0 0 0 -0 -0 -0 -0 -0 -0 -0 -0 -0 0 0 0 -0 0 0 0 0 0 -0 -0
-1 -1 -1 -1 -1 -1 -1 -1 -1 -1 -1 -1 -1 -0 -0 -0 -0 -0 -0 -1 -1 -1 -1 -1 -1 -1 -1 -1 -1 -1 -1 -1 -1 -1 -1 -0 -0 -0 -0 -0 -0 -0 -0
-1 -1 -1 -1 -1 -1 -1 -1 -1 -1 -1 -1 -1 -1 -1 -1 -1 -1 -1 -1 -1 -1 -1 -1 -1 -1 -1 -1 -1 -2 -2 -2 -2 -1 -1 -1 -1 -1 -1 -1 -1 -1 -1
-2 -2 -2 -2 -2 -2 -1 -1 -1 -2 -2 -2 -2 -2 -2 -1 -1 -1 -2 -2 -2 -2 -2 -2 -2 -2 -2 -2 -2 -2 -2 -2 -2 -2 -2 -2 -1 -1 -1 -1 -1 -1 -1
-2 -2 -2 -2 -2 -2 -2 -2 -2 -2 -2 -2 -2 -2 -2 -2 -2 -2 -2 -2 -2 -2 -2 -2 -2 -2 -2 -2 -2 -2 -2 -3 -3 -2 -3 -3 -2 -2 -2 -1 -1 -1 -2
-2 -3 -3 -2 -2 -2 -2 -2 -2 -2 -2 -3 -3 -3 -3 -3 -3 -3 -3 -3 -3 -2 -2 -2 -2 -2 -2 -2 -2 -3 -3 -3 -3 -3 -3 -3 -3 -3 -3 -2 -2 -2 -2
Wind_Speed
3 3 3 3 3 3 2 2 3 2 2 2 3 4 3 4 5 5 4 5 6 5 4 4 3 3 3 3 4 4 3 2 2 2 2 2 2 3 3 3 4 5 5
3 3 2 2 3 3 2 2 2 3 2 2 2 2 3 3 4 5 4 4 5 4 4 3 3 3 2 3 3 3 2 1 1 0 1 2 3 3 4 4 4 5 6
3 3 3 2 2 2 3 3 2 2 2 2 1 1 2 3 3 4 4 4 3 3 3 3 3 3 2 2 2 2 2 0 1 1 2 2 3 4 5 5 5 5 5
4 3 3 2 2 2 3 2 1 1 1 1 1 0 1 2 3 3 3 3 3 2 3 3 3 3 2 2 1 1 1 1 1 2 3 3 4 5 6 6 5 6 6
3 3 2 2 3 3 2 2 1 1 1 1 1 1 0 0 1 2 2 2 2 2 2 2 2 2 2 1 1 2 2 2 2 3 4 4 5 6 6 7 7 7 7
3 3 3 2 3 2 1 1 1 1 1 1 1 1 0 0 1 1 1 1 1 2 2 2 1 1 1 2 2 3 3 4 4 5 5 5 5 5 6 7 7 7 8
3 3 2 2 1 1 1 1 1 2 1 1 2 1 2 1 0 0 0 1 0 1 2 2 1 1 1 2 3 4 5 5 6 6 6 6 6 6 7 7 7 8 9
3 2 2 1 1 1 1 1 1 1 1 1 2 2 0 2 2 1 1 1 1 0 0 1 1 1 1 1 3 4 5 6 7 7 7 7 7 8 8 8 8 8 9
2 2 2 1 1 1 1 1 1 1 1 1 1 2 3 3 1 2 1 1 1 1 1 1 1 2 2 2 3 4 5 7 7 8 8 8 9 9 8 8 9 9 10
2 2 2 1 1 1 1 1 1 1 2 1 1 0 1 2 2 1 2 1 1 1 2 1 1 2 3 2 3 4 5 6 7 8 9 10 10 9 9 9 9 10 11
2 2 1 1 1 1 1 1 1 1 2 2 1 1 0 0 0 2 2 2 2 2 2 2 2 2 3 2 3 4 5 6 7 9 10 10 10 10 10 10 10 11 11
1 1 1 0 1 1 2 2 2 2 2 2 2 1 1 1 2 1 2 2 2 2 2 1 2 2 3 3 4 5 6 7 8 8 9 9 10 11 11 10 11 11 12
2 2 1 1 1 2 2 2 2 2 3 3 3 3 2 2 1 2 2 2 2 2 1 1 2 2 2 3 4 5 6 7 8 8 9 9 10 10 10 11 11 11 12
3 3 2 2 2 2 2 2 2 3 2 3 3 3 2 2 2 2 2 2 1 1 2 3 1 2 2 3 5 5 6 7 8 8 9 9 9 9 10 11 11 11 11
2 2 2 2 2 2 2 2 2 3 3 3 3 3 3 2 2 2 2 3 3 3 4 3 2 2 4 4 5 5 6 7 8 9 9 9 9 10 10 10 10 10 10
2 1 2 2 2 2 2 2 2 3 3 3 3 3 3 3 2 2 3 3 3 4 4 2 3 2 4 4 5 5 6 8 9 9 10 9 9 10 9 9 9 10 10
2 3 3 3 2 2 2 2 3 3 3 3 3 3 4 3 3 3 3 3 3 3 4 4 2 2 2 3 4 5 5 6 7 9 9 9 9 9 9 9 10 10 10
3 2 2 3 3 3 3 3 4 3 4 4 4 4 4 3 3 3 3 3 3 3 4 5 3 2 2 3 3 3 5 5 6 8 8 8 8 9 9 9 9 10 10
2 2 2 3 3 4 4 4 4 4 4 4 4 4 4 4 4 3 3 3 3 3 3 3 3 2 2 2 2 3 3 4 5 7 7 7 8 9 9 9 10 11 11
2 2 2 3 3 3 4 4 4 4 4 3 3 4 4 5 5 4 4 3 3 2 2 2 3 2 2 2 1 2 4 3 4 5 6 7 8 9 9 10 11 11 11
2 2 2 2 2 2 3 3 3 4 4 3 3 3 4 5 6 5 4 4 3 3 2 3 3 3 2 2 2 2 4 4 4 3 3 4 5 5 6 9 10 11 11
2 1 1 2 2 2 3 4 3 3 3 3 4 3 3 4 5 5 5 5 4 4 4 4 3 4 4 3 3 3 3 3 4 2 2 5 3 4 4 6 9 10 10
1 1 1 1 2 3 4 4 4 3 3 3 4 3 3 3 3 3 4 4 4 5 6 5 5 6 5 4 3 4 4 4 5 3 3 5 3 5 5 8 11 11 11
1 1 1 2 2 3 4 4 3 2 2 2 3 3 4 4 4 4 3 3 4 4 5 4 5 5 5 4 4 4 4 4 4 3 2 4 3 4 5 6 10 10 11
1 1 1 2 2 4 5 4 3 1 1 2 3 3 3 4 5 4 3 3 3 3 4 4 5 5 5 5 4 2 2 2 4 3 2 2 3 4 4 4 6 8 9
1 1 1 2 2 3 5 4 3 2 2 2 2 3 4 4 5 5 3 3 4 3 2 2 1 2 3 3 4 2 3 3 3 3 2 2 2 3 3 3 3 4 6
Wind_Direction
66 62 58 63 60 64 79 101 103 98 86 84 102 117 120 125 126 129 137 143 143 137 133 133 138 145 146 141 135 123 117 108 104 85 54 35 13 360 342 341 338 337 338
78 71 59 58 58 62 66 111 123 128 130 108 96 111 125 127 124 128 130 140 146 147 148 148 147 143 145 144 141 137 123 102 83 30 357 343 340 333 331 329 330 330 331
72 77 68 51 38 60 65 64 88 111 123 113 106 101 116 128 123 126 130 134 147 155 158 160 149 146 144 144 144 140 137 118 358 333 322 328 330 329 327 325 325 328 329
72 78 75 51 42 63 74 74 56 122 129 121 136 157 84 112 124 135 132 135 139 155 173 165 162 159 159 158 162 189 202 242 287 301 304 307 312 313 315 315 315 320 319
77 81 78 59 58 60 56 72 78 130 134 115 142 127 75 125 140 128 127 139 152 153 155 171 175 180 192 208 234 256 254 259 271 289 298 297 301 306 308 310 310 311 314
69 80 72 62 71 70 59 57 86 80 120 145 135 90 43 266 141 144 166 143 170 175 161 157 164 233 250 271 275 276 276 274 277 282 289 292 294 301 307 308 311 314 315
58 77 69 56 66 106 125 114 122 101 67 94 99 54 353 341 335 241 171 131 129 187 165 157 163 196 256 280 285 283 280 281 282 283 285 287 291 294 296 301 309 314 317
50 68 76 81 69 112 100 107 115 129 88 96 129 132 312 327 311 286 254 210 226 7 101 182 179 207 240 262 280 284 282 285 285 285 286 286 290 289 292 297 300 304 309
51 65 83 89 80 122 170 182 150 146 165 174 122 142 158 215 271 296 265 243 230 211 238 263 225 226 230 243 267 277 285 285 289 287 286 286 285 286 289 294 297 300 303
40 51 73 93 105 129 186 218 174 173 166 194 231 262 161 152 171 278 310 293 265 241 237 256 265 256 243 248 267 278 288 290 290 290 290 287 286 287 290 292 295 297 299
15 25 46 90 154 202 210 206 209 199 189 190 191 186 165 69 148 177 243 286 306 277 258 252 255 261 253 260 272 277 283 287 291 293 292 290 289 289 290 292 295 296 296
310 350 3 350 232 225 227 219 212 209 210 199 196 190 176 174 193 186 221 246 258 275 281 261 249 263 268 265 266 274 280 283 286 290 292 293 292 291 290 291 292 293 294
261 264 282 270 259 248 236 221 212 216 218 212 208 214 215 223 205 195 202 239 269 284 288 284 262 288 294 288 283 281 283 283 284 287 289 291 293 294 295 292 290 291 292
252 247 250 253 256 248 236 225 224 223 215 221 229 224 223 228 222 221 203 196 256 276 266 259 270 274 305 296 291 292 293 287 285 284 284 286 289 291 294 295 291 292 293
273 260 252 245 246 245 237 223 221 225 215 221 231 232 232 235 224 232 225 199 200 243 257 243 250 268 303 303 292 294 294 291 290 287 286 286 285 286 288 291 288 292 296
264 254 265 258 252 252 247 234 230 226 221 230 225 229 235 237 232 231 231 229 216 220 249 246 244 271 289 295 292 295 290 296 294 290 288 285 286 286 287 288 291 293 295
253 240 241 247 249 249 246 235 240 229 227 236 235 229 235 232 230 234 229 229 232 220 247 271 256 271 259 273 302 299 296 294 293 293 292 288 285 289 287 288 292 292 293
258 248 242 240 250 251 242 236 244 241 232 236 237 232 237 236 234 235 230 228 231 229 232 263 275 281 277 273 282 286 304 297 293 293 294 292 293 293 293 291 292 293 293
268 274 262 248 250 249 239 236 237 238 236 238 237 232 232 225 237 237 230 229 231 241 229 243 265 277 280 285 296 302 301 303 303 299 297 296 299 301 300 296 295 294 294
262 261 262 259 259 253 237 234 235 230 233 238 236 232 230 223 228 228 228 222 219 224 226 241 266 282 283 287 286 298 309 302 298 304 302 302 304 303 299 297 297 295 295
276 265 269 278 279 266 245 237 233 225 225 236 244 243 239 237 239 234 232 216 206 212 221 241 263 277 276 280 274 285 291 300 291 280 288 297 304 302 300 298 298 298 295
288 291 280 280 292 293 276 256 242 226 222 230 243 248 246 248 254 256 253 245 228 219 221 232 254 256 258 261 262 272 281 297 292 276 288 291 289 284 289 293 301 304 302
293 295 293 293 294 296 294 281 255 222 219 231 238 240 251 253 260 238 254 265 264 263 252 237 238 245 250 248 243 253 258 274 273 269 281 282 278 279 288 297 300 300 299
276 275 291 295 296 304 307 294 272 215 215 231 234 235 238 244 246 229 225 241 247 254 257 249 237 245 247 244 234 246 255 272 278 275 259 272 282 281 295 294 296 297 299
301 294 291 296 301 306 308 298 280 214 222 242 247 243 239 239 254 249 224 230 254 273 286 271 264 268 278 283 277 254 256 277 286 280 251 262 282 298 293 281 289 297 302
289 298 313 308 301 300 307 299 272 216 232 255 265 258 251 246 254 252 223 216 240 255 257 284 294 301 297 287 281 244 231 252 284 277 243 255 279 308 301 286 294 306 304
Height
1509 1509 1510 1510 1511 1512 1513 1514 1515 1517 1518 1519 1520 1521 1522 1523 1524 1525 1526 1527 1527 1528 1529 1529 1529 1530 1530 1530 1530 1530 1530 1530 1529 1529 1529 1529 1528 1528 1528 1527 1526 1526 1525
1507 1507 1508 1508 1509 1510 1511 1512 1513 1515 1516 1517 1518 1519 1521 1522 1522 1523 1524 1525 1526 1526 1527 1527 1528 1528 1528 1528 1528 1528 1528 1528 1528 1528 1527 1527 1527 1527 1526 1525 1525 1524 1523
1505 1505 1506 1506 1507 1508 1509 1510 1511 1512 1514 1515 1516 1517 1519 1520 1521 1521 1522 1523 1524 1524 1525 1525 1526 1526 1526 1526 1526 1526 1526 1526 1526 1526 1526 1525 1525 1524 1524 1523 1523 1522 1521
1503 1503 1504 1504 1505 1505 1506 1507 1508 1510 1511 1512 1514 1515 1516 1517 1519 1519 1520 1521 1521 1522 1523 1523 1523 1524 1524 1524 1524 1524 1524 1524 1524 1523 1523 1523 1522 1522 1522 1521 1520 1519 1519
1501 1501 1501 1502 1503 1503 1504 1505 1506 1507 1508 1509 1511 1513 1513 1515 1516 1517 1517 1518 1519 1519 1520 1520 1521 1521 1522 1522 1522 1522 1522 1522 1521 1521 1521 1520 1520 1519 1519 1518 1517 1517 1516
1499 1499 1499 1500 1500 1501 1502 1503 1504 1505 1505 1507 1508 1510 1511 1512 1513 1514 1515 1515 1516 1516 1517 1517 1518 1518 1519 1519 1519 1519 1519 1519 1519 1518 1518 1518 1517 1516 1516 1515 1514 1513 1513
1497 1497 1497 1497 1498 1499 1499 1501 1501 1502 1503 1504 1506 1507 1508 1509 1510 1510 1511 1512 1513 1513 1513 1514 1514 1515 1515 1515 1516 1516 1516 1516 1516 1516 1515 1515 1514 1514 1513 1512 1511 1510 1509
1494 1494 1495 1495 1496 1496 1497 1498 1499 1499 1500 1502 1503 1504 1505 1507 1506 1507 1508 1509 1510 1510 1510 1511 1511 1512 1512 1512 1512 1513 1513 1513 1513 1512 1512 1512 1511 1511 1510 1509 1508 1507 1506
1492 1492 1492 1493 1493 1494 1494 1495 1496 1497 1497 1499 1500 1501 1502 1502 1503 1504 1504 1506 1506 1507 1507 1508 1508 1509 1509 1509 1509 1509 1509 1509 1509 1509 1509 1508 1508 1507 1506 1505 1504 1503 1502
1489 1489 1490 1490 1491 1491 1492 1492 1493 1494 1495 1495 1497 1498 1499 1499 1500 1500 1501 1502 1503 1503 1504 1504 1505 1505 1506 1506 1506 1506 1505 1505 1505 1505 1504 1504 1504 1503 1502 1501 1500 1499 1498
1486 1487 1487 1487 1488 1488 1489 1489 1490 1491 1492 1492 1493 1494 1495 1496 1497 1497 1497 1498 1499 1500 1500 1501 1501 1502 1502 1502 1502 1502 1501 1501 1501 1500 1500 1500 1500 1499 1498 1497 1496 1495 1494
1483 1483 1484 1484 1484 1485 1485 1486 1487 1487 1488 1489 1490 1491 1491 1492 1493 1493 1494 1494 1494 1495 1496 1497 1497 1498 1498 1498 1498 1498 1497 1497 1496 1496 1496 1495 1495 1494 1493 1492 1491 1490 1489
1479 1480 1480 1480 1481 1482 1482 1483 1483 1484 1485 1485 1486 1487 1488 1488 1489 1490 1491 1490 1491 1491 1492 1492 1493 1493 1493 1494 1493 1493 1493 1492 1492 1492 1491 1490 1490 1489 1488 1487 1487 1485 1484
1476 1476 1476 1477 1477 1478 1479 1479 1479 1480 1481 1482 1482 1483 1484 1484 1486 1487 1488 1488 1487 1487 1488 1488 1489 1489 1489 1489 1489 1489 1488 1488 1487 1487 1486 1486 1485 1484 1483 1482 1481 1480 1479
1472 1472 1473 1473 1474 1474 1475 1475 1476 1476 1477 1478 1478 1479 1480 1480 1482 1483 1484 1484 1485 1484 1483 1483 1484 1485 1485 1485 1484 1484 1483 1483 1482 1482 1481 1480 1480 1479 1478 1477 1476 1475 1474
1469 1469 1469 1469 1470 1471 1471 1471 1472 1473 1473 1474 1474 1475 1475 1477 1477 1478 1479 1480 1481 1481 1480 1480 1480 1481 1481 1480 1480 1479 1478 1478 1477 1476 1476 1475 1474 1474 1473 1472 1471 1470 1469
1465 1465 1466 1466 1466 1466 1467 1468 1468 1469 1469 1469 1470 1470 1471 1473 1473 1474 1475 1476 1476 1477 1476 1476 1476 1476 1476 1475 1475 1474 1473 1473 1472 1471 1471 1470 1469 1468 1468 1467 1466 1465 1464
1462 1462 1462 1462 1462 1463 1463 1464 1464 1464 1465 1465 1465 1466 1467 1468 1469 1469 1470 1471 1472 1472 1472 1471 1471 1471 1471 1471 1470 1469 1468 1468 1467 1466 1465 1465 1464 1463 1462 1461 1461 1460 1459
1458 1458 1458 1458 1459 1459 1459 1460 1460 1460 1460 1461 1461 1462 1462 1463 1464 1465 1466 1466 1467 1468 1468 1468 1466 1466 1466 1466 1465 1464 1464 1463 1462 1462 1461 1460 1459 1458 1457 1456 1455 1454 1453
1455 1455 1455 1455 1455 1455 1455 1456 1456 1456 1456 1456 1457 1457 1458 1459 1459 1460 1461 1462 1462 1463 1463 1463 1462 1462 1461 1461 1461 1460 1458 1458 1457 1457 1456 1455 1454 1453 1452 1452 1450 1449 1448
1452 1452 1452 1452 1452 1452 1452 1451 1452 1452 1452 1453 1453 1453 1454 1454 1455 1456 1457 1457 1458 1458 1458 1458 1458 1457 1457 1456 1456 1455 1454 1453 1452 1452 1451 1450 1449 1448 1447 1446 1445 1444 1443
1450 1450 1449 1449 1449 1449 1449 1448 1448 1448 1448 1448 1449 1449 1449 1450 1451 1452 1452 1453 1454 1454 1453 1454 1453 1453 1452 1452 1452 1451 1451 1449 1448 1448 1446 1445 1445 1443 1442 1441 1440 1439 1438
1447 1447 1447 1446 1446 1446 1446 1445 1445 1445 1445 1444 1445 1445 1445 1446 1447 1447 1448 1448 1449 1449 1450 1450 1449 1449 1448 1448 1448 1447 1447 1446 1444 1444 1442 1440 1440 1438 1437 1436 1435 1434 1433
1445 1445 1444 1444 1444 1443 1443 1442 1442 1441 1441 1441 1441 1441 1442 1442 1442 1443 1443 1444 1444 1445 1445 1445 1445 1445 1445 1445 1444 1444 1443 1442 1441 1440 1439 1436 1435 1434 1432 1431 1431 1429 1428
1443 1443 1442 1442 1441 1441 1440 1440 1439 1438 1438 1438 1438 1438 1438 1438 1439 1439 1440 1439 1440 1440 1441 1441 1441 1441 1441 1441 1441 1440 1439 1437 1435 1435 1435 1433 1431 1429 1428 1427 1426 1425 1423
1442 1441 1441 1440 1440 1439 1438 1437 1437 1436 1436 1435 1435 1435 1435 1435 1436 1436 1436 1436 1435 1436 1436 1436 1437 1437 1437 1436 1436 1436 1435 1434 1432 1431 1431 1430 1428 1427 1424 1422 1422 1421 1419